EW1669 Weather Reports


Display with metric or nautical units.
time (UTC)temp
F
wind
direction
speed
MPH
gust
MPH
rain 1hr
in
rain 24hr
in
rain mn
in
humidity
%
barometer
mb
20260508163552 77 312 2.0 3.0 0.00 0.00 0.00 27 1015.3
20260508162949 76 203 0.0 1.0 0.00 0.00 0.00 28 1015.0
20260508162358 75 334 0.0 1.0 0.00 0.00 0.00 29 1015.3
20260508161750 74 325 0.0 1.0 0.00 0.00 0.00 29 1015.0
20260508161137 74 311 0.0 0.0 0.00 0.00 0.00 30 1015.3
20260508160555 74 339 0.0 2.0 0.00 0.00 0.00 29 1015.0
20260508160207 74 225 1.0 2.0 0.00 0.00 0.00 30 1015.0
20260508155430 74 236 0.0 3.0 0.00 0.00 0.00 29 1015.3
20260508154851 73 241 0.0 3.0 0.00 0.00 0.00 28 1015.0
20260508154254 73 223 0.0 1.0 0.00 0.00 0.00 30 1015.3
20260508154157 72 254 0.0 0.0 0.00 0.00 0.00 31 1015.3
20260508153053 72 177 0.0 0.0 0.00 0.00 0.00 33 1015.3
20260508152451 71 187 0.0 0.0 0.00 0.00 0.00 34 1015.0
20260508152123 70 255 0.0 0.0 0.00 0.00 0.00 36 1015.6
20260508151253 69 259 0.0 0.0 0.00 0.00 0.00 40 1015.3
20260508150654 70 215 0.0 0.0 0.00 0.00 0.00 41 1015.6
20260508150112 68 233 0.0 0.0 0.00 0.00 0.00 42 1015.3
20260508145513 67 221 0.0 0.0 0.00 0.00 0.00 44 1015.3
20260508145010 67 197 0.0 0.0 0.00 0.00 0.00 44 1015.0
20260508144511 66 230 0.0 0.0 0.00 0.00 0.00 48 1015.3
20260508143848 65 197 0.0 0.0 0.00 0.00 0.00 51 1015.3
20260508143513 65 218 0.0 0.0 0.00 0.00 0.00 53 1015.3
20260508142658 64 152 0.0 0.0 0.00 0.00 0.00 54 1015.0
20260508142054 63 195 0.0 0.0 0.00 0.00 0.00 57 1015.3
20260508141453 62 213 0.0 0.0 0.00 0.00 0.00 59 1015.3
20260508140851 61 229 0.0 0.0 0.00 0.00 0.00 61 1015.3
20260508140304 61 209 0.0 0.0 0.00 0.00 0.00 62 1015.6
20260508135655 60 235 0.0 0.0 0.00 0.00 0.00 63 1015.6
20260508135109 59 213 0.0 0.0 0.00 0.00 0.00 65 1015.3
20260508134446 59 207 0.0 0.0 0.00 0.00 0.00 67 1015.3
20260508134114 58 203 0.0 0.0 0.00 0.00 0.00 68 1015.3
20260508133253 56 197 0.0 0.0 0.00 0.00 0.00 70 1015.3
20260508132648 56 200 0.0 0.0 0.00 0.00 0.00 71 1015.0
20260508132056 55 200 0.0 0.0 0.00 0.00 0.00 72 1015.3
20260508131453 54 200 0.0 0.0 0.00 0.00 0.00 74 1015.3
20260508130851 53 203 0.0 0.0 0.00 0.00 0.00 72 1015.0
20260508130510 53 204 0.0 0.0 0.00 0.00 0.00 72 1015.0
20260508125700 51 204 0.0 0.0 0.00 0.00 0.00 74 1015.0
20260508125055 50 204 0.0 0.0 0.00 0.00 0.00 75 1015.3
20260508124457 48 204 0.0 0.0 0.00 0.00 0.00 78 1015.0
20260508123856 47 204 0.0 0.0 0.00 0.00 0.00 79 1015.3
20260508123255 47 202 0.0 0.0 0.00 0.00 0.00 80 1015.0
20260508122906 47 202 0.0 0.0 0.00 0.00 0.00 81 1015.0
20260508122023 47 203 0.0 0.0 0.00 0.00 0.00 80 1014.6
20260508121435 48 203 0.0 0.0 0.00 0.00 0.00 81 1015.0
20260508120849 49 204 0.0 0.0 0.00 0.00 0.00 81 1014.6
20260508120514 49 204 0.0 0.0 0.00 0.00 0.00 81 1015.0
20260508115652 49 204 0.0 0.0 0.00 0.00 0.00 80 1015.0
20260508115053 49 204 0.0 0.0 0.00 0.00 0.00 80 1014.6
20260508114718 49 204 0.0 0.0 0.00 0.00 0.00 80 1014.6
20260508113853 49 204 0.0 0.0 0.00 0.00 0.00 79 1014.6
20260508113515 50 204 0.0 0.0 0.00 0.00 0.00 79 1014.6
20260508112704 49 204 0.0 0.0 0.00 0.00 0.00 79 1014.6
20260508112113 50 204 0.0 0.0 0.00 0.00 0.00 77 1014.6
20260508111452 51 204 0.0 0.0 0.00 0.00 0.00 77 1015.0
20260508110853 51 204 0.0 0.0 0.00 0.00 0.00 76 1014.6
20260508110510 52 204 0.0 0.0 0.00 0.00 0.00 76 1014.6
20260508105710 52 204 0.0 0.0 0.00 0.00 0.00 75 1015.0
20260508105142 53 204 0.0 0.0 0.00 0.00 0.00 74 1014.6
20260508104530 53 203 0.0 6.0 0.00 0.00 0.00 74 1015.0
20260508104007 53 219 0.0 6.0 0.00 0.00 0.00 73 1014.6
20260508103352 52 208 0.0 0.0 0.00 0.00 0.00 73 1015.0
20260508102810 51 208 0.0 0.0 0.00 0.00 0.00 74 1014.6
20260508102151 51 207 0.0 0.0 0.00 0.00 0.00 74 1014.6
20260508101553 51 207 0.0 0.0 0.00 0.00 0.00 72 1015.0
20260508100953 52 207 0.0 0.0 0.00 0.00 0.00 72 1015.0
20260508100356 52 208 0.0 0.0 0.00 0.00 0.00 71 1015.0
20260508095754 52 209 0.0 0.0 0.00 0.00 0.00 71 1015.0
20260508095141 52 209 0.0 0.0 0.00 0.00 0.00 70 1015.0
20260508094613 52 211 0.0 1.0 0.00 0.00 0.00 70 1015.0
20260508093951 52 214 0.0 0.0 0.00 0.00 0.00 69 1015.0
20260508093351 52 205 0.0 0.0 0.00 0.00 0.00 69 1015.0
20260508092752 52 211 0.0 0.0 0.00 0.00 0.00 68 1015.0
20260508092155 52 211 0.0 0.0 0.00 0.00 0.00 68 1015.3
20260508091013 52 193 0.0 1.0 0.00 0.00 0.00 67 1015.0
20260508090354 53 188 0.0 0.0 0.00 0.00 0.00 66 1015.3
20260508085754 53 141 0.0 6.0 0.00 0.00 0.00 65 1015.3
20260508085145 54 214 0.0 1.0 0.00 0.00 0.00 64 1015.3
20260508084552 54 217 0.0 1.0 0.00 0.00 0.00 64 1015.6
20260508083951 54 214 0.0 7.0 0.00 0.00 0.00 63 1015.6
20260508083402 53 200 0.0 0.0 0.00 0.00 0.00 63 1015.6
20260508082750 53 224 0.0 1.0 0.00 0.00 0.00 63 1015.3
20260508082154 53 211 0.0 1.0 0.00 0.00 0.00 62 1015.3
20260508081645 54 215 0.0 0.0 0.00 0.00 0.00 62 1015.6
20260508081048 54 217 0.0 6.0 0.00 0.00 0.00 61 1015.6
20260508080453 54 194 0.0 6.0 0.00 0.00 0.00 60 1015.6
20260508075854 54 191 4.0 6.0 0.00 0.00 0.00 60 1015.6
20260508075325 54 197 0.0 4.0 0.00 0.00 0.00 60 1015.6
20260508075018 54 190 0.0 4.0 0.00 0.00 0.00 60 1015.6
20260508074151 54 207 0.0 7.0 0.00 0.00 0.00 59 1015.6
20260508073556 54 220 5.0 7.0 0.00 0.00 0.00 59 1015.6
20260508073211 55 204 4.0 4.0 0.00 0.00 0.00 58 1015.6
20260508072352 56 203 0.0 1.0 0.00 0.00 0.00 57 1016.0
20260508071807 56 221 0.0 1.0 0.00 0.00 0.00 56 1015.6
20260508071150 56 205 0.0 2.0 0.00 0.00 0.00 56 1015.6
20260508070554 56 199 0.0 2.0 0.00 0.00 0.00 55 1015.6
20260508065950 56 199 0.0 0.0 0.00 0.00 0.00 54 1016.0
20260508065350 57 205 0.0 0.0 0.00 0.00 0.00 54 1016.0
20260508064800 57 195 0.0 0.0 0.00 0.00 0.00 53 1015.6
20260508064156 57 213 0.0 3.0 0.00 0.00 0.00 53 1016.0
20260508063548 57 209 0.0 2.0 0.00 0.00 0.00 53 1016.0
20260508062942 57 204 0.0 6.0 0.00 0.00 0.00 53 1016.0
20260508062354 57 209 0.0 0.0 0.00 0.00 0.00 52 1015.6
20260508061747 58 202 0.0 1.0 0.00 0.00 0.00 51 1016.0
20260508061154 58 150 0.0 1.0 0.00 0.00 0.00 51 1016.0
20260508060852 58 205 0.0 1.0 0.00 0.00 0.00 50 1016.0
20260508060046 58 160 0.0 1.0 0.00 0.00 0.00 49 1015.6
20260508055500 58 147 0.0 0.0 0.00 0.00 0.00 49 1016.3
20260508054923 58 154 0.0 0.0 0.00 0.00 0.00 48 1016.0
20260508054405 58 188 0.0 0.0 0.00 0.00 0.00 46 1016.3
20260508053754 59 173 0.0 0.0 0.00 0.00 0.00 45 1016.3
20260508053151 59 200 0.0 0.0 0.00 0.00 0.00 44 1016.3
20260508052558 60 143 0.0 6.0 0.00 0.00 0.00 43 1016.3
20260508051944 60 139 0.0 1.0 0.00 0.00 0.00 42 1016.3
20260508051354 60 196 0.0 1.0 0.00 0.00 0.00 42 1016.3
20260508050747 61 173 0.0 0.0 0.00 0.00 0.00 41 1016.3
20260508050213 60 125 0.0 0.0 0.00 0.00 0.00 41 1016.3
20260508045554 60 145 0.0 0.0 0.00 0.00 0.00 41 1016.3
20260508044955 60 158 0.0 0.0 0.00 0.00 0.00 40 1016.3
20260508044351 60 148 0.0 0.0 0.00 0.00 0.00 40 1016.3
20260508043747 60 150 0.0 0.0 0.00 0.00 0.00 40 1016.3
20260508043208 60 159 0.0 0.0 0.00 0.00 0.00 39 1016.7
20260508042554 60 158 0.0 0.0 0.00 0.00 0.00 39 1016.7
20260508042000 60 159 0.0 0.0 0.00 0.00 0.00 39 1016.3
20260508041345 60 159 0.0 0.0 0.00 0.00 0.00 39 1016.7
20260508040744 61 158 0.0 0.0 0.00 0.00 0.00 38 1016.7
20260508040159 61 161 0.0 0.0 0.00 0.00 0.00 38 1016.3
20260508035558 61 158 0.0 0.0 0.00 0.00 0.00 38 1016.7
20260508034945 62 157 0.0 0.0 0.00 0.00 0.00 37 1016.7
20260508034353 62 156 0.0 0.0 0.00 0.00 0.00 36 1016.7
20260508033745 63 153 0.0 0.0 0.00 0.00 0.00 36 1016.3
20260508033158 63 151 0.0 0.0 0.00 0.00 0.00 36 1016.3
20260508032554 63 153 0.0 0.0 0.00 0.00 0.00 35 1016.7
20260508032012 64 155 0.0 0.0 0.00 0.00 0.00 35 1016.3
20260508031349 64 144 0.0 0.0 0.00 0.00 0.00 34 1016.3
20260508030741 65 155 0.0 0.0 0.00 0.00 0.00 33 1016.0
20260508030425 65 152 0.0 0.0 0.00 0.00 0.00 33 1016.0
20260508025654 65 160 0.0 0.0 0.00 0.00 0.00 33 1016.0
20260508025054 66 142 0.0 1.0 0.00 0.00 0.00 32 1016.0
20260508024554 66 166 0.0 1.0 0.00 0.00 0.00 32 1016.0
20260508024016 66 161 0.0 4.0 0.00 0.00 0.00 31 1015.6
20260508023337 67 144 3.0 4.0 0.00 0.00 0.00 30 1016.0
20260508022750 67 145 0.0 0.0 0.00 0.00 0.00 29 1016.0
20260508022137 67 147 0.0 0.0 0.00 0.00 0.00 26 1015.6
20260508021548 68 162 0.0 0.0 0.00 0.00 0.00 24 1015.6
20260508020958 69 175 0.0 0.0 0.00 0.00 0.00 24 1015.6
20260508020350 69 200 0.0 0.0 0.00 0.00 0.00 23 1015.3
20260508015812 70 210 0.0 0.0 0.00 0.00 0.00 22 1015.6
20260508015151 70 153 0.0 0.0 0.00 0.00 0.00 22 1015.3
20260508014552 71 142 0.0 1.0 0.00 0.00 0.00 21 1015.3
20260508014309 71 153 0.0 2.0 0.00 0.00 0.00 22 1015.3
20260508013500 71 191 0.0 2.0 0.00 0.00 0.00 22 1015.0
20260508012849 72 202 0.0 1.0 0.00 0.00 0.00 22 1015.0
20260508012247 72 204 0.0 1.0 0.00 0.00 0.00 21 1015.3
20260508011651 73 214 0.0 1.0 0.00 0.00 0.00 21 1015.3
20260508011052 73 226 0.0 2.0 0.00 0.00 0.00 21 1015.3
20260508010449 73 207 0.0 0.0 0.00 0.00 0.00 21 1015.0
20260508005852 73 200 0.0 0.0 0.00 0.00 0.00 20 1015.0
20260508005732 74 202 0.0 7.0 0.00 0.00 0.00 20 1015.3
20260508004906 74 215 2.0 7.0 0.00 0.00 0.00 20 1015.3
20260508004055 74 159 0.0 8.0 0.00 0.00 0.00 20 1015.3
20260508003444 74 212 6.0 8.0 0.00 0.00 0.00 21 1015.0
20260508003115 74 201 0.0 4.0 0.00 0.00 0.00 21 1015.3
20260508002251 74 217 0.0 10.0 0.00 0.00 0.00 20 1015.3
20260508001654 74 224 5.0 10.0 0.00 0.00 0.00 20 1015.3
20260508001055 74 224 7.0 9.0 0.00 0.00 0.00 19 1015.3
20260508000551 74 218 0.0 1.0 0.00 0.00 0.00 21 1015.3
20260507235954 74 177 0.0 9.0 0.00 0.00 0.00 22 1015.3
20260507235354 75 233 2.0 3.0 0.00 0.00 0.00 21 1015.3
20260507234751 74 196 0.0 4.0 0.00 0.00 0.00 21 1015.3
20260507234150 74 140 0.0 4.0 0.00 0.00 0.00 22 1015.3
20260507233613 74 215 0.0 2.0 0.00 0.00 0.00 22 1015.3
20260507232956 74 210 1.0 9.0 0.00 0.00 0.00 22 1015.3
20260507232352 75 207 0.0 2.0 0.00 0.00 0.00 22 1015.6
20260507231752 75 181 0.0 4.0 0.00 0.00 0.00 23 1015.6
20260507231212 74 186 0.0 4.0 0.00 0.00 0.00 22 1015.6
20260507230549 74 199 0.0 2.0 0.00 0.00 0.00 23 1016.0
20260507230011 75 227 0.0 1.0 0.00 0.00 0.00 23 1015.6
20260507225356 75 215 0.0 8.0 0.00 0.00 0.00 23 1015.6
20260507225012 74 201 4.0 8.0 0.00 0.00 0.00 22 1015.6
20260507224417 76 153 6.0 8.0 0.00 0.00 0.00 24 1016.0
20260507223817 75 150 0.0 0.0 0.00 0.00 0.00 24 1015.6
20260507222952 74 184 0.0 8.0 0.00 0.00 0.00 25 1016.0
20260507222608 74 132 4.0 8.0 0.00 0.00 0.00 25 1016.0
20260507221803 75 221 0.0 2.0 0.00 0.00 0.00 25 1016.0
20260507221258 75 181 0.0 4.0 0.00 0.00 0.00 25 1016.0
20260507220652 73 174 0.0 3.0 0.00 0.00 0.00 25 1016.0
20260507220052 75 177 1.0 3.0 0.00 0.00 0.00 26 1016.0
20260507215502 73 214 0.0 10.0 0.00 0.00 0.00 25 1016.3
20260507214850 74 142 0.0 13.0 0.00 0.00 0.00 26 1016.7
20260507214304 74 221 1.0 4.0 0.00 0.00 0.00 26 1016.3
20260507213712 74 184 0.0 1.0 0.00 0.00 0.00 26 1016.7
20260507213054 73 202 0.0 3.0 0.00 0.00 0.00 27 1016.7
20260507212451 74 190 0.0 7.0 0.00 0.00 0.00 27 1016.7
20260507211943 74 195 3.0 7.0 0.00 0.00 0.00 27 1017.0
20260507211407 74 193 0.0 3.0 0.00 0.00 0.00 27 1017.3
20260507210844 72 156 1.0 7.0 0.00 0.00 0.00 29 1017.3
20260507210243 73 156 4.0 7.0 0.00 0.00 0.00 28 1017.3
20260507205650 73 210 0.0 3.0 0.00 0.00 0.00 28 1017.3
20260507205059 72 198 0.0 6.0 0.00 0.00 0.00 29 1017.3
20260507204555 73 187 0.0 6.0 0.00 0.00 0.00 27 1017.7
20260507204037 72 203 0.0 6.0 0.00 0.00 0.00 29 1017.7
20260507203713 71 159 0.0 0.0 0.00 0.00 0.00 30 1018.0
20260507202857 71 179 0.0 4.0 0.00 0.00 0.00 29 1018.0
20260507202255 70 105 1.0 4.0 0.00 0.00 0.00 30 1018.0
20260507201056 70 216 0.0 6.0 0.00 0.00 0.00 31 1018.3
20260507200455 70 218 1.0 8.0 0.00 0.00 0.00 31 1018.3
20260507195908 69 211 4.0 8.0 0.00 0.00 0.00 32 1018.7
20260507195351 69 183 0.0 6.0 0.00 0.00 0.00 31 1018.7
20260507194747 70 162 0.0 2.0 0.00 0.00 0.00 33 1018.7
20260507194427 69 198 1.0 4.0 0.00 0.00 0.00 34 1018.7
20260507193551 68 193 0.0 2.0 0.00 0.00 0.00 34 1018.7
20260507193221 68 195 0.0 1.0 0.00 0.00 0.00 36 1018.7
20260507192413 69 105 0.0 1.0 0.00 0.00 0.00 34 1019.0
20260507191853 67 204 0.0 3.0 0.00 0.00 0.00 37 1019.0
20260507191310 67 200 0.0 3.0 0.00 0.00 0.00 37 1019.4
20260507190656 66 185 0.0 2.0 0.00 0.00 0.00 38 1019.4
20260507190052 66 181 0.0 9.0 0.00 0.00 0.00 38 1019.4
20260507185503 65 121 0.0 0.0 0.00 0.00 0.00 39 1019.7
20260507184858 66 144 0.0 0.0 0.00 0.00 0.00 39 1020.0
20260507184259 67 170 0.0 0.0 0.00 0.00 0.00 38 1019.7
20260507183711 66 220 0.0 4.0 0.00 0.00 0.00 40 1020.0
20260507183049 63 204 0.0 7.0 0.00 0.00 0.00 43 1019.7
20260507182508 65 225 0.0 6.0 0.00 0.00 0.00 41 1020.0
20260507181847 65 188 0.0 1.0 0.00 0.00 0.00 40 1020.0
20260507181255 64 203 0.0 4.0 0.00 0.00 0.00 42 1020.0
20260507180650 62 188 1.0 10.0 0.00 0.00 0.00 44 1020.4
20260507180103 63 186 0.0 10.0 0.00 0.00 0.00 43 1020.4
20260507175449 62 202 0.0 8.0 0.00 0.00 0.00 46 1020.7
20260507174838 61 170 0.0 2.0 0.00 0.00 0.00 45 1020.4
20260507174311 61 213 0.0 7.0 0.00 0.00 0.00 45 1020.7
20260507173700 59 203 0.0 7.0 0.00 0.00 0.00 48 1021.1
20260507173054 62 191 4.0 7.0 0.00 0.00 0.00 45 1021.1
20260507172449 60 191 6.0 7.0 0.00 0.00 0.00 48 1021.1
20260507171856 59 164 1.0 6.0 0.00 0.00 0.00 49 1021.1
20260507171250 60 191 0.0 1.0 0.00 0.00 0.00 48 1021.1
20260507170700 59 191 0.0 1.0 0.00 0.00 0.00 49 1021.1
20260507170311 58 145 0.0 6.0 0.00 0.00 0.00 49 1021.1
20260507165441 58 185 0.0 1.0 0.00 0.00 0.00 48 1021.4
20260507165131 57 195 0.0 6.0 0.00 0.00 0.00 50 1021.1
20260507164532 56 178 0.0 2.0 0.00 0.00 0.00 53 1021.4